Time,TemperatureF,DewpointF,PressureIn,WindDirection,WindDirectionDegrees,WindSpeedMPH,WindSpeedGustMPH,Humidity,HourlyPrecipIn,Conditions,Clouds,dailyrainin,SoftwareType,DateUTC
2014-03-04 02:00:00,33.0,-99.9,-100.00,North,-999,-999.0,-999.0,-999,-99.99,,,0.02,,2014-03-04 10:00:00,
2014-03-04 02:53:00,33.0,-99.9,-100.00,North,-999,-999.0,-999.0,-999,-99.99,,,0.02,,2014-03-04 10:53:00,
2014-03-04 03:00:00,33.0,-99.9,-100.00,North,-999,-999.0,-999.0,-999,-99.99,,,-99.99,,2014-03-04 11:00:00,
2014-03-04 03:53:00,33.0,-99.9,-100.00,North,-999,-999.0,-999.0,-999,-99.99,,,-99.99,,2014-03-04 11:53:00,
2014-03-04 04:00:00,33.0,-99.9,-100.00,North,-999,-999.0,-999.0,-999,-99.99,,,0.02,,2014-03-04 12:00:00,
2014-03-04 04:52:00,33.0,-99.9,-100.00,North,-999,-999.0,-999.0,-999,-99.99,,,0.02,,2014-03-04 12:52:00,
2014-03-04 06:00:00,33.0,-99.9,-100.00,North,-999,-999.0,-999.0,-999,-99.99,,,0.02,,2014-03-04 14:00:00,
2014-03-04 06:53:00,33.0,-99.9,-100.00,North,-999,-999.0,-999.0,-999,-99.99,,,0.02,,2014-03-04 14:53:00,
2014-03-04 08:00:00,35.0,-99.9,-100.00,North,-999,-999.0,-999.0,-999,-99.99,,,0.03,,2014-03-04 16:00:00,
2014-03-04 09:00:00,37.0,-99.9,-100.00,North,-999,-999.0,-999.0,-999,-99.99,,,0.03,,2014-03-04 17:00:00,
2014-03-04 09:53:00,37.0,-99.9,-100.00,North,-999,-999.0,-999.0,-999,-99.99,,,0.03,,2014-03-04 17:53:00,
2014-03-04 10:00:00,38.0,-99.9,-100.00,North,-999,-999.0,-999.0,-999,-99.99,,,0.03,,2014-03-04 18:00:00,
2014-03-04 10:52:00,38.0,-99.9,-100.00,North,-999,-999.0,-999.0,-999,-99.99,,,0.03,,2014-03-04 18:52:00,
2014-03-04 11:00:00,41.0,-99.9,-100.00,North,-999,-999.0,-999.0,-999,-99.99,,,0.03,,2014-03-04 19:00:00,
2014-03-04 11:52:00,41.0,-99.9,-100.00,North,-999,-999.0,-999.0,-999,-99.99,,,0.03,,2014-03-04 19:52:00,
2014-03-04 12:00:00,44.0,-99.9,-100.00,North,-999,-999.0,-999.0,-999,-99.99,,,0.03,,2014-03-04 20:00:00,
2014-03-04 12:52:00,44.0,-99.9,-100.00,North,-999,-999.0,-999.0,-999,-99.99,,,0.03,,2014-03-04 20:52:00,
2014-03-04 13:00:00,44.0,-99.9,-100.00,North,-999,-999.0,-999.0,-999,-99.99,,,0.02,,2014-03-04 21:00:00,
2014-03-04 13:54:00,44.0,-99.9,-100.00,North,-999,-999.0,-999.0,-999,-99.99,,,0.02,,2014-03-04 21:54:00,
2014-03-04 14:00:00,45.0,-99.9,-100.00,North,-999,-999.0,-999.0,-999,-99.99,,,0.02,,2014-03-04 22:00:00,
2014-03-04 14:53:00,45.0,-99.9,-100.00,North,-999,-999.0,-999.0,-999,-99.99,,,0.02,,2014-03-04 22:53:00,
2014-03-04 17:00:00,42.0,-99.9,-100.00,North,-999,-999.0,-999.0,-999,-99.99,,,0.02,,2014-03-05 01:00:00,
2014-03-04 17:53:00,42.0,-99.9,-100.00,North,-999,-999.0,-999.0,-999,-99.99,,,0.02,,2014-03-05 01:53:00,
2014-03-04 20:00:00,36.0,-99.9,-100.00,North,-999,-999.0,-999.0,-999,-99.99,,,0.02,,2014-03-05 04:00:00,
2014-03-04 20:53:00,36.0,-99.9,-100.00,North,-999,-999.0,-999.0,-999,-99.99,,,0.02,,2014-03-05 04:53:00,
2014-03-04 21:00:00,37.0,-99.9,-100.00,North,-999,-999.0,-999.0,-999,-99.99,,,0.01,,2014-03-05 05:00:00,
2014-03-04 21:53:00,37.0,-99.9,-100.00,North,-999,-999.0,-999.0,-999,-99.99,,,0.01,,2014-03-05 05:53:00,
2014-03-04 22:00:00,36.0,-99.9,-100.00,North,-999,-999.0,-999.0,-999,-99.99,,,0.01,,2014-03-05 06:00:00,
2014-03-04 22:52:00,36.0,-99.9,-100.00,North,-999,-999.0,-999.0,-999,-99.99,,,0.01,,2014-03-05 06:52:00,
2014-03-04 23:00:00,36.0,-99.9,-100.00,North,-999,-999.0,-999.0,-999,-99.99,,,0.01,,2014-03-05 07:00:00,
2014-03-04 23:52:00,36.0,-99.9,-100.00,North,-999,-999.0,-999.0,-999,-99.99,,,0.01,,2014-03-05 07:52:00,